{"data":{"norad_id":63214,"intl_designator":"2025-052E","name":"TEVEL2-5","alt_names":[],"object_type":"PAYLOAD","status":"ACTIVE","operator":null,"country":"ISRA","launch_date":"2025-03-15","launch_site_code":"AFWTR","launch_vehicle":null,"mission":null,"orbit_class":"UNKNOWN","rcs_meters":null,"size_class":null,"mass_kg":null,"dimensions":null,"purposes":["comms"],"wikipedia_slug":null,"has_3d_model":false,"image_url":null,"decayed_at":null,"tle_current":{"epoch":"2026-09-19T11:18:27.246816Z","epoch_age_seconds":104040,"freshness":"FRESH","line1":"1 63214U 25052E   26262.47114869  .00014048  00000+0  38435-3 0  9990","line2":"2 63214  97.3755 159.0762 0004348 111.7461 248.4247 15.37454822 84581","mean_motion":15.37454822,"eccentricity":0.0004348,"inclination_deg":97.3755,"raan_deg":159.0762,"arg_perigee_deg":111.7461,"mean_anomaly_deg":248.4247,"bstar":0.00038435,"rev_number":8458,"period_min":93.661288734766,"perigee_km":450.66824646112,"apogee_km":456.60915861204,"semimajor_km":6831.7757025366,"source":"CELESTRAK","updated_at":"2026-09-20T09:00:45.242893Z"}}}